Regional Weather Roundup
Issued by NWS Wilmington, NC

Home | Current Version | Previous Version | Text Only | Print | Product List | Glossary On
Versions: 1 2 3 4 5 6 7 8 9 10 11 12 13 14 15 16 17 18 19 20 21 22 23 24 25 26 27
000
ASUS42 KILM 281313
RWRILM
RWRILM
REGIONAL HOURLY WEATHER ROUNDUP
NATIONAL WEATHER SERVICE WILMINGTON NC
900 AM EDT TUE MAR 28 2017

NOTE: "FAIR" INDICATES FEW OR NO CLOUDS BELOW 12,000 FEET WITH NO
SIGNIFICANT WEATHER AND/OR OBSTRUCTIONS TO VISIBILITY.

...............WFO WILMINGTON COUNTY WARNING AREA...............

......COASTAL NC AND SC COUNTIES......

CITY           SKY/WX    TMP DP  RH WIND       PRES   REMARKS
WILMINGTON     MOSUNNY   70  60  70 SW13      29.99F
N MYRTLE BEACH MOSUNNY   66  61  84 SW12      29.99F
MYRTLE BEACH   MOSUNNY   70  61  73 SW9G20    30.00F

......INLAND NC AND SC COUNTIES.......

CITY           SKY/WX    TMP DP  RH WIND       PRES   REMARKS
LUMBERTON      CLOUDY    62  61  96 SW8       29.98R
ELIZABETHTOWN  LGT RAIN  63  60  90 W6        29.99S
WHITEVILLE     CLOUDY    66  59  78 W3        30.00R
FLORENCE       PTSUNNY   64  63  96 MISG      29.99S
DARLINGTON     MOSUNNY   62  61  96 S6        29.98S
KINGSTREE      CLOUDY    64  59  82 S8        30.00R
HARTSVILLE     FAIR      61  59  94 S7        29.97S
BENNETTSVILLE  FAIR      64  63  94 S6        29.97S
CONWAY         FAIR      64  59  82 SW10      30.00S THUNDER HAZE
GEORGETOWN     FAIR      68  61  77 SW9       30.02S
MARION         CLOUDY    61  59  94 CALM      30.00R THUNDER

....................REST OF NORTH CAROLINA......................

.........EASTERN NC.........

CITY           SKY/WX    TMP DP  RH WIND       PRES   REMARKS
CAPE HATTERAS  CLOUDY    70  60  70 SW9       30.00S HAZE
JACKSONVILLE   CLOUDY    68  61  78 SW12      29.99S
MOREHEAD CITY  MOSUNNY   67  62  84 SW12      30.00S
KENANSVILLE    CLOUDY    66  59  77 W8        29.98S
NEW BERN       CLOUDY    67  61  81 SW8       30.00S
ELIZABETH CITY CLOUDY    65  58  78 S9        29.97S

.........CENTRAL NC.........

CITY           SKY/WX    TMP DP  RH WIND       PRES   REMARKS
RALEIGH DURHAM CLOUDY    62  59  90 SW10      29.95R
ROCKY MOUNT    CLOUDY    63  59  87 S7        29.95F
ROANOKE RAPIDS NOT AVBL
FAYETTEVILLE   CLOUDY    63  61  93 S6        29.96F
HOFFMAN        PTSUNNY   61  59  94 S9        29.95F

.........WESTERN NC.........

CITY           SKY/WX    TMP DP  RH WIND       PRES   REMARKS
CHARLOTTE      PTSUNNY   62  59  90 S9        29.95S
GREENSBORO     CLOUDY    60  59  96 SW10      29.93R
HICKORY        NOT AVBL
BOONE          NOT AVBL
ASHEVILLE      NOT AVBL

.....................REST OF SOUTH CAROLINA.....................

.........EASTERN SC.........

CITY           SKY/WX    TMP DP  RH WIND       PRES   REMARKS
CHARLESTON     MOSUNNY   69  61  75 SW12      30.01S
BEAUFORT MCAS  SUNNY     70  63  78 SW9       30.03R
HILTON HEAD    SUNNY    N/A N/A N/A SW12      30.03R

.........CENTRAL SC.........

CITY           SKY/WX    TMP DP  RH WIND       PRES   REMARKS
COLUMBIA       CLOUDY    67  57  70 SW8       29.97S
ORANGEBURG     MOSUNNY   66  59  78 SW10      30.00R
SUMTER SHAW    MOSUNNY   66  58  77 SW9       29.96S

.........WESTERN SC.........

CITY           SKY/WX    TMP DP  RH WIND       PRES   REMARKS
GREENVILLE     NOT AVBL
ROCK HILL      MOSUNNY   60  59  96 SW6       29.95S
ANDERSON       MOSUNNY   62  59  90 W8        29.97R
CLEMSON        NOT AVBL
GREENWOOD      SUNNY     63  59  87 S7        29.98R


...................COASTAL AND OFFSHORE REPORTS..................

................LOCAL PIERS AND NC RESERVE................


STATION/POSITION TIME  SKY/WX   TEMP    WIND        PRES    VSBY
                                AIR SEA DIR/SP/G
                 (UTC)          (F)     (DEG/KT/KT) (MB)    (MI)
JOHNY MRCER PIER 1248            67 58  220/ 12/ 14 1014.5F
NC RESRV MASNBRO NOT AVBL
OCEAN CREST PIER NOT AVBL
SPRINGMAID  PIER 1248                               1015.2S


................COASTAL AND OFFSHORE BUOYS................


STATION/POSITION TIME  SKY/WX   TEMP    WIND        PRES    VSBY
                                AIR SEA DIR/SP/G
                 (UTC)          (F)     (DEG/KT/KT) (MB)    (MI)
DIMNDSHOAL 41025 1250            72 75  230/ 16/ 19 1015.9S
WVE H/P(F/S)=  5/10 SWL H/P/D(F/S/D)=  3/130/10

CAPE LOOKOUT     1200            67     220/  5/  7 1015.8R
ONSLOW BAY 41036 NOT AVBL
ONSLOW BAY 41064 1208            66     250/  8/ 10 1016.2R
ONSLOW BAY 41159 1243               64                N/A
WVE H/P(F/S)=  5/11 SWL H/P/D(F/S/D)=  3/140/11

MASNBO INL 41110 1259               60                N/A
WVE H/P(F/S)=  3/11 SWL H/P/D(F/S/D)=  2/140/11

WILM HARBR 41108 1247               59                N/A
WVE H/P(F/S)=  4/12 SWL H/P/D(F/S/D)=  2/140/12

27SE WRITB 41037 1208            68 66  230/ 10/ 14 1015.4R
FRYING PAN 41013 1250            72 75  250/ 17/ 21 1016.3R
WVE H/P(F/S)=  5/10 SWL H/P/D(F/S/D)=  5/140/10

SUNST NRSH 41024 NOT AVBL
CAPRS NRSH 41029 1208            64     220/  8/ 12 1016.3R
EDISTO     41004 1150            71 70  240/ 14/ 16 1016.2
WVE H/P(F/S)=  6/10 SWL H/P/D(F/S/D)=  5/120/10



..........OFFSHORE BUOYS BEYOND 100 NM OFFSHORE...........
.....IN A TRIANGLE---HAT TO BERMUDA TO BAHAMAS TO HAT.....


STATION/POSITION TIME  SKY/WX   TEMP    WIND        PRES    VSBY
                                AIR SEA DIR/SP/G
                 (UTC)          (F)     (DEG/KT/KT) (MB)    (MI)
150E HAT   41001 NOT AVBL
W BERMUDA  41048 1150            67 68   60/  8/ 10 1016.7
WVE H/P(F/S)=  7/10 SWL H/P/D(F/S/D)=  7/140/10

ATLANTIC S 41049 1150            74 72  160/ 25/ 31 1004.4
WVE H/P(F/S)=  9/ 8 SWL H/P/D(F/S/D)=  3/260/13

E BAHAMAS  41046 NOT AVBL
NE BAHAMAS 41047 1250            71 72   30/ 14/ 17 1016.0R
WVE H/P(F/S)= 10/11 SWL H/P/D(F/S/D)=  8/ 80/11

120E CANVRL41010 NOT AVBL

END




USA.gov is the U.S. government's official web portal to all federal, state and local government web resources and services.